Погода в Абдрахманове

Россия / Оренбургская область     54°02′25″N   53°30′02″E
темп.,
°C
ветер,
м/с
пор.,
м/с
влажн.,
%
обл.,
%
осадки,
мм/ч
давл.,
гПа
погр.,
м
22 апреля, чт
чт2223:00+8ю71543100 0.0 1027947
02:00+5ююз71364100 0.4 1028959
05:00+3ююв71596100 2.4 1029782
08:00+4ю6128897 0.4 1029771
11:00+8ю71159100 0.4 1029955
14:00+7ю71078100 0.3 1029932
17:00+6ююв71187100 0.9 1029881
20:00+5ююв71183100 0.0 1029777
23 апреля, пт
пт2323:00+3ю61195100 0.0 1029572
02:00+3ю4999100 0.0 1029436
05:00+3ююв3798100 0.1 1029287
08:00+4вюв129490 0.0 1029161
11:00+8вюв3470100 0.0 1028639
14:00+12юв5553100 0.0 10271023
17:00+13юв5649100 0.0 10251349
20:00+11юв5864100 0.0 1024433
24 апреля, сб
сб2423:00+8ююв5985100 0.0 1024650
02:00+7юв4789100 1.9 10211021
05:00+7юв6989100 3.8 10181124
08:00+7вюв61087100 1.1 10161025
11:00+5юв6893100 1.4 1015925
14:00+6юв3792100 0.6 10141065
17:00+6юв4691100 1.5 1014923
20:00+5ююв2596100 0.3 1013257
25 апреля, вс
вс2523:00+6ю3697100 0.4 1013266
02:00+6ю3796100 0.0 1012229
05:00+6ююв51289100 0.0 1011352
08:00+7ююз71292100 0.6 1011876
11:00+8зюз9127594 1.6 10121234
14:00+9зюз8116391 0.2 10141610
17:00+11зюз813509 0.9 10142274
20:00+9зюз37635 0.4 1015238
26 апреля, пн
пн2623:00+5зюз49800 0.4 1017266
02:00+4юз22882 0.0 101823
05:00+3ю22855 0.0 101822
08:00+5ююз278362 0.0 1018238
11:00+9з57635 0.0 10181037
14:00+11з564093 0.0 10181761
17:00+11зсз443593 0.0 10181637
20:00+9ссз2248100 0.0 101735